Location: Woodstock
(35.2731°N, 89.9823°W)
Time: 14:29:21
(UTC+00:00)

ARIANE 6 FM1 Upper Stage - Visible Passes

Search period start: 13 October 2024 00:00
Search period end: 23 October 2024 00:00
Orbit: 563 x 595 km, 62.0° (Epoch: 12 October)

Date Brightness Start Highest point End Pass type
(mag) Time Alt. Az. Time Alt. Az. Time Alt. Az.
18 Oct 5.1 01:10:14 10° N 01:10:59 13° N 01:10:59 13° N visible
19 Oct 4.8 01:13:54 10° N 01:15:23 18° N 01:15:23 18° N visible
20 Oct 4.4 01:17:47 10° NNW 01:19:53 25° N 01:19:53 25° N visible
21 Oct 3.9 01:21:50 10° NNW 01:24:30 36° NNW 01:24:30 36° NNW visible
21 Oct 4.6 23:48:15 10° N 23:50:38 14° NE 23:52:58 10° ENE visible
22 Oct 3.6 01:26:01 10° NW 01:29:18 47° WNW 01:29:18 47° WNW visible
22 Oct 4.1 23:51:39 10° N 23:55:01 21° NE 23:57:57 12° E visible
